Norden-Norddeich Airport

EDWS · Basse-Saxe, Allemagne

6 octobre 2022

Temps Code Temps Temp. Vue Base cloud Vent METAR/SPECI
17:25
V
16 °C 10 km+ - 220° 220° 30 kt METAR EHHW 061525Z AUTO 22030KT 9999 FEW025/// 16/10 Q1026
16:55
V
16 °C 10 km+ - 220° 220° 29 kt METAR EHHW 061455Z AUTO 22029KT 9999 FEW025/// 16/09 Q1026
16:25
V
16 °C 10 km+ - 230° 230° 29 kt METAR EHHW 061425Z AUTO 23029KT 9999 FEW023/// 16/09 Q1026
15:55
V
16 °C 10 km+ - 230° 230° 30 kt METAR EHHW 061355Z AUTO 23030KT 9999 FEW025/// 16/09 Q1026
15:25
V
16 °C 10 km+ - 230° 230° 29 kt METAR EHHW 061325Z AUTO 23029KT 9999 FEW025/// SCT031/// 16/09 Q1026
14:55
V
15 °C 10 km+ - 230° 230° 28 kt METAR EHHW 061255Z AUTO 23028KT 9999 FEW024/// SCT028/// 15/08 Q1026
14:25
V
16 °C 10 km+ - 230° 230° 27 kt METAR EHHW 061225Z AUTO 23027KT 9999 FEW024/// 16/09 Q1026
13:55
V
16 °C 10 km+ - 230° 230° 28 kt METAR EHHW 061155Z AUTO 23028KT 9999 FEW026/// 16/08 Q1026
13:25
V
15 °C 10 km+ - 240° 240° 28 kt METAR EHHW 061125Z AUTO 24028KT 9999 FEW025/// 15/08 Q1025
12:55
V
16 °C 10 km+ - 230° 230° 30 kt METAR EHHW 061055Z AUTO 23030KT 9999 FEW024/// 16/09 Q1025
12:25
V
16 °C 10 km+ - 250° 250° 29 kt METAR EHHW 061025Z AUTO 25029KT 9999 FEW027/// SCT034/// 16/08 Q1025
11:55
V
16 °C 10 km+ 3.500 ft 240° 240° 28 kt METAR EHHW 060955Z AUTO 24028KT 9999 SCT026/// SCT030/// BKN035/// 16/08 Q1024
11:25
V
16 °C 10 km+ 3.700 ft 250° 250° 28 kt METAR EHHW 060925Z AUTO 25028KT 9999 FEW023/// SCT028/// BKN037/// 16/08 Q1024
10:55
V
15 °C 10 km+ - 250° 250° 28 kt METAR EHHW 060855Z AUTO 25028KT 9999 FEW023/// SCT032/// 15/09 Q1024
10:25
V
15 °C 10 km+ - 250° 250° 29 kt METAR EHHW 060825Z AUTO 25029KT 9999 FEW023/// SCT031/// 15/08 Q1023
09:55
V
15 °C 10 km+ - 250° 250° 28 kt METAR EHHW 060755Z AUTO 25028KT 9999 FEW025/// SCT029/// 15/09 Q1023
09:25
V
15 °C 10 km+ - 250° 250° 27 kt METAR EHHW 060725Z AUTO 25027KT 9999 FEW026/// SCT031/// 15/09 Q1022
08:55
V
15 °C 10 km+ 3.700 ft 260° 260° 27 kt METAR EHHW 060655Z AUTO 26027KT 9999 FEW026/// SCT031/// BKN037/// 15/08 Q1022
08:25
V
15 °C 10 km+ - 270° 270° 28 kt METAR EHHW 060625Z AUTO 27028KT 9999 FEW027/// SCT032/// 15/08 Q1021
07:55
V
15 °C 10 km+ - 270° 270° 29 kt METAR EHHW 060555Z AUTO 27029KT 9999 FEW026/// SCT031/// 15/08 Q1021
07:25
V
15 °C 10 km+ - 270° 270° 28 kt METAR EHHW 060525Z AUTO 27028KT 9999 FEW026/// SCT036/// 15/08 Q1020
06:55
V
15 °C 10 km+ - 270° 270° 30 kt METAR EHHW 060455Z AUTO 27030KT 9999 FEW026/// 15/08 Q1020
06:25
V
15 °C 10 km+ - 270° 270° 32 kt METAR EHHW 060425Z AUTO 27032KT 9999 FEW026/// SCT032/// 15/08 Q1019
05:55
V
15 °C 10 km+ - 270° 270° 31 kt METAR EHHW 060355Z AUTO 27031KT 9999 FEW026/// SCT034/// 15/08 Q1019
05:25
V
15 °C 10 km+ - 270° 270° 32 kt METAR EHHW 060325Z AUTO 27032KT 9999 FEW028/// SCT039/// 15/07 Q1018
04:55
V
15 °C 10 km+ - 270° 270° 33 kt METAR EHHW 060255Z AUTO 27033KT 9999 FEW026/// SCT030/// 15/07 Q1018
04:25
V
15 °C 10 km+ - 270° 270° 32 kt METAR EHHW 060225Z AUTO 27032KT 9999 FEW026/// 15/08 Q1017
03:55
V
15 °C 10 km+ - 260° 260° 35 kt METAR EHHW 060155Z AUTO 26035KT 9999 FEW028/// SCT041/// 15/08 Q1017
03:25
V
15 °C 10 km+ - 260° 260° 33 kt METAR EHHW 060125Z AUTO 26033KT 9999 FEW028/// SCT046/// 15/07 Q1016
02:55
V
15 °C 10 km+ - 270° 270° 32 kt METAR EHHW 060055Z AUTO 27032KT 9999 FEW030/// SCT040/// 15/09 Q1016
02:25
V
15 °C 10 km+ - 270° 270° 33 kt METAR EHHW 060025Z AUTO 27033KT 9999 FEW028/// SCT032/// 15/08 Q1015
01:55
V
15 °C 10 km+ - 260° 260° 34 kt METAR EHHW 052355Z AUTO 26034KT 9999 FEW021/// 15/07 Q1015
01:25
V
15 °C 10 km+ - 260° 260° 27 kt METAR EHHW 052325Z AUTO 26027KT 9999 FEW001/// SCT045/// 15/10 Q1014 REDZ
00:55
V
14 °C 10 km+ 4.000 ft 270° 270° 32 kt METAR EHHW 052255Z AUTO 27032KT 9999 -DZRA FEW001/// SCT023/// BKN040/// 14/10 Q1014
00:25
V
15 °C 10 km+ 4.900 ft 240° 240° 29 kt METAR EHHW 052225Z AUTO 24029KT 9999 FEW019/// SCT023/// BKN049/// 15/11 Q1013

5 octobre 2022

Temps Code Temps Temp. Vue Base cloud Vent METAR/SPECI
23:55
V
16 °C 10 km+ - 250° 250° 29 kt METAR EHHW 052155Z AUTO 25029KT 9999 FEW021/// SCT025/// 16/10 Q1013
23:25
V
15 °C 10 km+ - 250° 250° 31 kt METAR EHHW 052125Z AUTO 25031KT 9999 FEW015/// SCT022/// 15/10 Q1012
22:55
V
15 °C 10 km+ 4.000 ft 250° 250° 28 kt METAR EHHW 052055Z AUTO 25028KT 9999 FEW015/// SCT019/// BKN040/// 15/11 Q1012
22:25
V
15 °C 10 km+ - 250° 250° 27 kt METAR EHHW 052025Z AUTO 25027KT 9999 FEW011/// SCT040/// 15/11 Q1011 REDZ
21:55
V
15 °C 10 km+ - 250° 250° 19 kt METAR EHHW 051955Z AUTO 25019KT 9999 FEW010/// SCT042/// 15/12 Q1009
21:25
V
15 °C 10 km+ 4.300 ft 270° 270° 22 kt METAR EHHW 051925Z AUTO 27022KT 9999 FEW007/// SCT015/// BKN043/// 15/12 Q1009
20:55
M
14 °C 5 km 1.000 ft 290° 290° 23 kt METAR EHHW 051855Z AUTO 29023KT 5000 -RADZ FEW002/// SCT007/// BKN010/// 14/13 Q1008 RERA REDZ
20:25
I
16 °C 10 km+ 800 ft 210° 210° 36 kt METAR EHHW 051825Z AUTO 21036KT 9999 FEW002/// SCT007/// BKN008/// 16/15 Q1008
19:55
M
16 °C 7 km 1.400 ft 210° 210° 38 kt METAR EHHW 051755Z AUTO 21038KT 7000 FEW007/// SCT010/// BKN014/// 16/14 Q1009
19:25
M
16 °C 5 km 1.900 ft 210° 210° 37 kt METAR EHHW 051725Z AUTO 21037KT 5000 -RADZ FEW007/// SCT016/// OVC019/// 16/14 Q1008
18:55
M
17 °C 10 km+ 1.800 ft 210° 210° 37 kt METAR EHHW 051655Z AUTO 21037KT 9999 FEW002/// BKN018/// OVC021/// 17/13 Q1008
18:25
M
17 °C 10 km+ 1.900 ft 210° 210° 34 - 44 kt METAR EHHW 051625Z AUTO 21034G44KT 9999 FEW002/// BKN019/// OVC022/// 17/13 Q1008
17:55
M
17 °C 10 km+ 1.900 ft 210° 210° 36 kt METAR EHHW 051555Z AUTO 21036KT 9999 BKN019/// OVC023/// 17/13 Q1008
17:25
M
17 °C 10 km+ 2.700 ft 210° 210° 35 - 47 kt METAR EHHW 051525Z AUTO 21035G47KT 9999 FEW019/// SCT023/// BKN027/// 17/13 Q1008
16:55
M
16 °C 10 km+ 2.700 ft 200° 200° 32 kt METAR EHHW 051455Z AUTO 20032KT 9999 SCT019/// SCT023/// BKN027/// 16/13 Q1008
16:25
M
16 °C 10 km+ 2.400 ft 200° 200° 33 kt METAR EHHW 051425Z AUTO 20033KT 9999 SCT018/// BKN024/// 16/12 Q1008
15:55
V
16 °C 10 km+ - 200° 200° 35 kt METAR EHHW 051355Z AUTO 20035KT 9999 FEW017/// SCT027/// 16/12 Q1009
15:25
M
16 °C 10 km+ 2.600 ft 200° 200° 35 kt METAR EHHW 051325Z AUTO 20035KT 9999 FEW016/// SCT019/// BKN026/// 16/13 Q1009
14:55
M
16 °C 10 km+ 1.900 ft 200° 200° 35 kt METAR EHHW 051255Z AUTO 20035KT 9999 SCT016/// BKN019/// OVC024/// 16/13 Q1009
14:25
M
16 °C 10 km+ 2.200 ft 200° 200° 31 kt METAR EHHW 051225Z AUTO 20031KT 9999 SCT016/// BKN022/// BKN027/// 16/13 Q1009
13:55
M
17 °C 10 km+ 1.900 ft 200° 200° 30 kt METAR EHHW 051155Z AUTO 20030KT 9999 SCT016/// BKN019/// OVC027/// 17/13 Q1010
13:25
M
16 °C 10 km+ 1.500 ft 200° 200° 28 kt METAR EHHW 051125Z AUTO 20028KT 9999 FEW013/// BKN015/// OVC018/// 16/13 Q1010
12:55
M
16 °C 10 km+ 1.500 ft 200° 200° 26 kt METAR EHHW 051055Z AUTO 20026KT 9999 FEW013/// BKN015/// OVC020/// 16/13 Q1009
12:25
M
16 °C 10 km+ 1.700 ft 210° 210° 27 kt METAR EHHW 051025Z AUTO 21027KT 9999 SCT014/// BKN017/// OVC020/// 16/13 Q1010
11:55
M
16 °C 10 km+ 1.600 ft 210° 210° 29 kt METAR EHHW 050955Z AUTO 21029KT 9999 SCT014/// BKN016/// BKN019/// 16/13 Q1010
11:25
M
16 °C 10 km+ 1.600 ft 200° 200° 29 kt METAR EHHW 050925Z AUTO 20029KT 9999 FEW014/// BKN016/// BKN019/// 16/13 Q1010
10:55
M
16 °C 10 km+ 1.500 ft 200° 200° 30 kt METAR EHHW 050855Z AUTO 20030KT 9999 BKN015/// BKN018/// 16/13 Q1010
10:25
M
16 °C 10 km+ 1.500 ft 200° 200° 28 kt METAR EHHW 050825Z AUTO 20028KT 9999 FEW013/// BKN015/// BKN019/// 16/13 Q1010
09:55
M
16 °C 10 km+ 1.300 ft 200° 200° 28 kt METAR EHHW 050755Z AUTO 20028KT 9999 FEW011/// BKN013/// BKN017/// 16/13 Q1010
09:25
M
16 °C 10 km+ 1.400 ft 200° 200° 27 kt METAR EHHW 050725Z AUTO 20027KT 9999 SCT011/// BKN014/// OVC017/// 16/13 Q1010
08:55
M
16 °C 10 km+ 1.500 ft 200° 200° 28 kt METAR EHHW 050655Z AUTO 20028KT 9999 FEW010/// SCT013/// BKN015/// 16/13 Q1011
08:25
M
16 °C 10 km+ 1.700 ft 200° 200° 27 kt METAR EHHW 050625Z AUTO 20027KT 9999 FEW008/// SCT011/// BKN017/// 16/13 Q1010
07:55
M
16 °C 10 km+ 1.300 ft 200° 200° 26 kt METAR EHHW 050555Z AUTO 20026KT 9999 FEW008/// SCT010/// BKN013/// 16/14 Q1011
07:25
M
16 °C 10 km+ 1.200 ft 200° 200° 28 kt METAR EHHW 050525Z AUTO 20028KT 9999 FEW008/// SCT010/// BKN012/// 16/14 Q1011
06:55
M
16 °C 10 km+ 1.000 ft 210° 210° 27 kt METAR EHHW 050455Z AUTO 21027KT 9999 FEW008/// SCT009/// BKN010/// 16/14 Q1011
06:25
M
16 °C 10 km+ 1.000 ft 210° 210° 26 kt METAR EHHW 050425Z AUTO 21026KT 9999 SCT008/// SCT009/// BKN010/// 16/14 Q1011
05:55
M
16 °C 10 km+ 1.600 ft 210° 210° 26 kt METAR EHHW 050355Z AUTO 21026KT 9999 FEW008/// SCT010/// BKN016/// 16/14 Q1011
05:25
M
16 °C 10 km+ 1.500 ft 210° 210° 26 kt METAR EHHW 050325Z AUTO 21026KT 9999 FEW007/// SCT008/// BKN015/// 16/14 Q1012
04:55
M
16 °C 10 km+ 1.600 ft 210° 210° 25 kt METAR EHHW 050255Z AUTO 21025KT 9999 FEW007/// SCT009/// BKN016/// 16/14 Q1012
04:25
M
16 °C 10 km+ 1.100 ft 210° 210° 25 kt METAR EHHW 050225Z AUTO 21025KT 9999 FEW008/// BKN011/// BKN016/// 16/14 Q1012
03:55
M
16 °C 10 km+ 1.100 ft 200° 200° 21 kt METAR EHHW 050155Z AUTO 20021KT 9999 FEW007/// SCT009/// BKN011/// 16/14 Q1012
03:25
M
17 °C 10 km+ 1.500 ft 210° 210° 23 kt METAR EHHW 050125Z AUTO 21023KT 9999 FEW007/// SCT010/// BKN015/// 17/14 Q1012
02:55
M
17 °C 10 km+ 1.400 ft 210° 210° 25 kt METAR EHHW 050055Z AUTO 21025KT 9999 FEW007/// SCT008/// BKN014/// 17/14 Q1013
02:25
M
17 °C 10 km+ 1.000 ft 210° 210° 22 kt METAR EHHW 050025Z AUTO 21022KT 9999 FEW007/// SCT009/// BKN010/// 17/15 Q1013
01:55
M
17 °C 10 km+ 1.400 ft 210° 210° 25 kt METAR EHHW 042355Z AUTO 21025KT 9999 FEW008/// SCT009/// BKN014/// 17/15 Q1013
01:25
M
17 °C 10 km+ 1.700 ft 210° 210° 24 kt METAR EHHW 042325Z AUTO 21024KT 9999 FEW008/// SCT014/// BKN017/// 17/15 Q1014
00:55
M
16 °C 10 km+ 1.200 ft 210° 210° 21 kt METAR EHHW 042255Z AUTO 21021KT 9999 FEW007/// SCT009/// BKN012/// 16/15 Q1014
00:25
V
16 °C 10 km+ 3.600 ft 210° 210° 23 kt METAR EHHW 042225Z AUTO 21023KT 9999 FEW007/// SCT010/// OVC036/// 16/15 Q1014

4 octobre 2022

Temps Code Temps Temp. Vue Base cloud Vent METAR/SPECI
23:55
V
16 °C 10 km+ 3.600 ft 210° 210° 24 kt METAR EHHW 042155Z AUTO 21024KT 9999 FEW007/// BKN036/// BKN041/// 16/15 Q1014
23:25
V
16 °C 10 km+ 4.400 ft 210° 210° 23 kt METAR EHHW 042125Z AUTO 21023KT 9999 FEW008/// SCT010/// BKN044/// 16/14 Q1014
22:55
I
16 °C 10 km+ 900 ft 210° 210° 24 kt METAR EHHW 042055Z AUTO 21024KT 9999 SCT008/// BKN009/// BKN010/// 16/14 Q1014
22:25
I
16 °C 10 km+ 800 ft 210° 210° 21 kt METAR EHHW 042025Z AUTO 21021KT 9999 SCT007/// BKN008/// BKN010/// 16/14 Q1014
21:55
M
16 °C 10 km+ 1.500 ft 210° 210° 22 kt METAR EHHW 041955Z AUTO 21022KT 9999 FEW008/// SCT010/// BKN015/// 16/14 Q1014
21:25
V
16 °C 10 km+ 3.000 ft 200° 200° 22 kt METAR EHHW 041925Z AUTO 20022KT 9999 FEW008/// OVC030/// 16/14 Q1014
20:55
M
16 °C 10 km+ 2.900 ft 210° 210° 23 kt METAR EHHW 041855Z AUTO 21023KT 9999 FEW023/// BKN029/// OVC032/// 16/14 Q1015
20:25
M
16 °C 10 km+ 2.300 ft 200° 200° 25 kt METAR EHHW 041825Z AUTO 20025KT 9999 FEW008/// SCT017/// BKN023/// 16/14 Q1015
19:55
M
16 °C 10 km+ 2.700 ft 210° 210° 24 kt METAR EHHW 041755Z AUTO 21024KT 9999 FEW008/// SCT019/// BKN027/// 16/13 Q1015
19:25
M
16 °C 10 km+ 1.600 ft 210° 210° 24 kt METAR EHHW 041725Z AUTO 21024KT 9999 BKN016/// OVC036/// 16/12 Q1015
18:55
M
16 °C 10 km+ 1.600 ft 200° 200° 26 kt METAR EHHW 041655Z AUTO 20026KT 9999 BKN016/// OVC019/// 16/12 Q1015
18:25
M
16 °C 10 km+ 1.700 ft 200° 200° 24 kt METAR EHHW 041625Z AUTO 20024KT 9999 BKN017/// BKN021/// OVC024/// 16/12 Q1015
17:55
M
16 °C 10 km+ 2.300 ft 200° 200° 23 kt METAR EHHW 041555Z AUTO 20023KT 9999 FEW017/// BKN023/// OVC039/// 16/12 Q1015
17:25
V
16 °C 10 km+ 3.700 ft 200° 200° 23 kt METAR EHHW 041525Z AUTO 20023KT 9999 FEW012/// OVC037/// 16/12 Q1016
16:55
V
16 °C 10 km+ 3.800 ft 200° 200° 21 kt METAR EHHW 041455Z AUTO 20021KT 9999 FEW012/// BKN038/// OVC042/// 16/12 Q1016
Données plus anciennes

Nous et des tiers suivons ton comportement sur Internet sur notre site Web à l'aide de cookies. Si tu continues, nous supposons que tu acceptes notre politique en matière de cookies. Apprendre plus